User: anonymous
Location: Castro Valley
(37.6940°N, 122.0850°W)
Time: 03:43:12
(UTC-07:00)
Language:

PANSAT - Orbit

View from above orbital plane
View from above orbital plane
View from above satellite
View from above satellite

Ground track
Ground track

The orbit data is extracted from the following two-line orbital elements,

1 25520U 98064B   14209.49886449  .00001853  00000-0  66534-4 0  5361
2 25520 028.4579 310.1393 0004039 202.6812 254.9562 15.23691926872945
Epoch (UTC): 28 July 2014 11:58:21
Eccentricity: 0.0004039
inclination: 28.4579°
perigee height: 492 km
apogee height: 497 km
right ascension of ascending node: 310.1393°
argument of perigee: 202.6812°
revolutions per day: 15.23691926
mean anomaly at epoch: 254.9562°
orbit number at epoch: 87294

The dashed part of the orbit path shows where the satellite is in the earth's shadow,  

DLR